GW2492 Weather Reports


Display with metric or nautical units.
time (UTC)temp
F
wind
direction
speed
MPH
gust
MPH
rain 1hr
in
rain 24hr
in
rain mn
in
humidity
%
barometer
mb
20260507040057 61 68 4.0 8.0 0.00 0.04 0.04 80 1016.0
20260507034553 61 99 3.0 9.0 0.00 0.04 0.04 80 1015.6
20260507033046 61 80 3.0 7.0 0.00 0.04 0.04 79 1015.5
20260507031543 62 114 3.0 8.0 0.00 0.04 0.04 78 1015.1
20260507030043 62 112 4.0 8.0 0.00 0.04 0.04 77 1014.9
20260507024545 63 111 6.0 11.0 0.00 0.04 0.04 76 1015.0
20260507023042 63 90 6.0 11.0 0.00 0.04 0.04 75 1014.6
20260507021546 64 98 6.0 11.0 0.00 0.04 0.04 73 1014.6
20260507020051 64 98 5.0 10.0 0.00 0.04 0.04 72 1014.2
20260507014545 65 107 6.0 11.0 0.00 0.04 0.04 71 1014.0
20260507013047 66 53 6.0 13.0 0.00 0.04 0.04 68 1014.0
20260507011555 67 89 8.0 14.0 0.00 0.04 0.04 67 1014.0
20260507010046 69 103 8.0 12.0 0.00 0.04 0.04 64 1013.5
20260507004542 69 72 5.0 13.0 0.00 0.04 0.04 62 1013.6
20260507003044 69 60 9.0 15.0 0.00 0.04 0.04 62 1013.3
20260507001602 70 49 8.0 12.0 0.00 0.04 0.04 61 1013.3
20260507000056 70 32 8.0 12.0 0.00 0.04 0.04 59 1013.5
20260506234547 71 63 5.0 11.0 0.00 0.04 0.04 60 1013.4
20260506233045 71 49 6.0 11.0 0.00 0.04 0.04 59 1013.2
20260506231547 71 35 7.0 12.0 0.00 0.04 0.04 58 1013.3
20260506230053 71 35 4.0 11.0 0.00 0.04 0.04 59 1013.1
20260506224546 72 61 5.0 13.0 0.00 0.04 0.04 57 1013.1
20260506223045 71 57 5.0 11.0 0.00 0.04 0.04 59 1013.0
20260506221543 70 101 5.0 11.0 0.00 0.04 0.04 60 1013.1
20260506214547 70 80 6.0 10.0 0.00 0.04 0.04 62 1013.1
20260506213046 69 30 1.0 11.0 0.00 0.04 0.04 63 1013.3
20260506211544 70 84 5.0 10.0 0.00 0.04 0.04 62 1013.6
20260506210050 67 40 3.0 12.0 0.00 0.04 0.04 67 1013.5
20260506204541 66 0 4.0 12.0 0.00 0.04 0.04 70 1013.6
20260506203135 66 23 3.0 10.0 0.00 0.04 0.04 70 1013.9
20260506201547 65 38 5.0 12.0 0.00 0.04 0.04 71 1014.2
20260506200049 63 90 4.0 11.0 0.00 0.04 0.04 74 1014.6
20260506194542 62 103 5.0 11.0 0.00 0.04 0.04 75 1014.9
20260506193040 61 64 5.0 12.0 0.00 0.04 0.04 75 1014.8
20260506191552 61 19 6.0 11.0 0.00 0.04 0.04 77 1015.0
20260506190050 60 55 6.0 12.0 0.00 0.04 0.04 77 1015.1
20260506184552 60 22 7.0 15.0 0.00 0.04 0.04 78 1015.1
20260506183043 59 24 8.0 15.0 0.00 0.04 0.04 78 1015.5
20260506181544 59 65 8.0 15.0 0.00 0.04 0.04 78 1015.8
20260506180048 59 34 8.0 17.0 0.00 0.04 0.04 79 1015.9
20260506174550 59 10 10.0 17.0 0.00 0.04 0.04 79 1015.8
20260506173054 58 27 9.0 15.0 0.00 0.04 0.04 80 1016.0
20260506171557 57 40 10.0 16.0 0.00 0.04 0.04 81 1015.9
20260506170043 57 17 11.0 18.0 0.00 0.04 0.04 81 1015.6
20260506164549 56 355 10.0 15.0 0.00 0.04 0.04 82 1015.6
20260506163058 56 45 10.0 17.0 0.00 0.04 0.04 82 1015.7
20260506161544 55 39 12.0 16.0 0.00 0.04 0.04 83 1015.3
20260506160050 55 15 12.0 17.0 0.00 0.04 0.04 83 1015.3
20260506154548 55 5 12.0 16.0 0.00 0.04 0.04 84 1015.0
20260506153050 54 35 11.0 16.0 0.00 0.04 0.04 87 1014.7
20260506151544 54 30 13.0 19.0 0.00 0.04 0.04 87 1014.7
20260506150045 53 19 12.0 20.0 0.00 0.04 0.04 89 1014.5
20260506144546 53 13 13.0 17.0 0.00 0.04 0.04 89 1014.4
20260506143040 52 9 12.0 20.0 0.03 0.04 0.04 89 1014.4
20260506141544 52 14 16.0 22.0 0.03 0.04 0.04 89 1013.7
20260506140046 52 11 12.0 20.0 0.03 0.04 0.04 90 1013.8
20260506134547 52 30 9.0 15.0 0.03 0.03 0.03 89 1014.2
20260506133046 52 25 9.0 19.0 0.01 0.01 0.01 88 1014.2
20260506131547 53 34 15.0 21.0 0.01 0.01 0.01 88 1012.9
20260506130047 53 75 11.0 21.0 0.01 0.01 0.01 87 1012.9
20260506124547 54 39 6.0 21.0 0.00 0.00 0.00 84 1014.8
20260506123043 54 24 10.0 17.0 0.00 0.00 0.00 83 1014.1
20260506121557 55 59 10.0 19.0 0.00 0.00 0.00 82 1012.3
20260506120053 55 40 10.0 16.0 0.00 0.00 0.00 82 1012.0
20260506114552 55 11 12.0 18.0 0.00 0.00 0.00 81 1012.7
20260506113053 55 28 14.0 18.0 0.00 0.00 0.00 81 1012.0
20260506111542 55 20 12.0 17.0 0.00 0.00 0.00 81 1012.0
20260506110056 55 32 11.0 17.0 0.00 0.00 0.00 81 1011.6
20260506104548 55 42 6.0 16.0 0.00 0.00 0.00 81 1011.1
20260506103045 56 30 11.0 16.0 0.00 0.00 0.00 80 1011.1
20260506101605 56 65 12.0 17.0 0.00 0.00 0.00 80 1011.4
20260506100044 57 26 12.0 17.0 0.00 0.00 0.00 79 1011.0
20260506094540 58 50 12.0 19.0 0.00 0.00 0.00 79 1011.0
20260506093046 58 22 11.0 14.0 0.00 0.00 0.00 79 1010.8
20260506091546 58 31 11.0 15.0 0.00 0.00 0.00 78 1010.1
20260506090058 59 27 8.0 15.0 0.00 0.00 0.00 78 1009.8
20260506084545 60 32 10.0 14.0 0.00 0.00 0.00 78 1009.8
20260506083040 61 34 9.0 14.0 0.00 0.00 0.00 77 1010.2
20260506081548 62 32 9.0 13.0 0.00 0.00 0.00 77 1010.3
20260506073042 64 42 6.0 12.0 0.00 0.00 0.00 76 1010.2
20260506071548 64 46 4.0 10.0 0.00 0.00 0.00 76 1010.4
20260506061548 67 94 5.0 10.0 0.00 0.00 0.00 71 1009.4
20260506050103 74 51 8.0 17.0 0.00 0.00 0.00 55 1009.3
20260506044544 77 49 1.0 3.0 0.00 0.00 0.00 39 1009.0
20260506043046 77 71 1.0 4.0 0.00 0.00 0.00 39 1008.7
20260506041558 77 57 3.0 7.0 0.00 0.00 0.00 39 1008.8